St. Petersburg, FL

5:57 PM EST on December 13, 2017 (GMT -0500)
Whitted

Weather History for KSPG - February, 2014

Change the Weather History Date:

Monday, February 10, 2014

  Actual Average Record
Temperature  
Mean Temperature 64 °F -  
Max Temperature 72 °F 68 °F 81 °F (1959)
Min Temperature 57 °F 51 °F 36 °F (1971)
Growing Degree Days 14 (Base 50)    
Moisture  
Dew Point 55 °F    
Average Humidity 74    
Maximum Humidity 90    
Minimum Humidity 53    
Precipitation  
Precipitation 0.00 in - - ()
Sea Level Pressure  
Sea Level Pressure 30.08 in    
Wind  
Wind Speed 5 mph (NE)    
Max Wind Speed 9 mph    
Max Gust Speed -    
Visibility 10 miles    
Events      
Averages and records for this station are not official NWS values.
T = Trace of Precipitation, MM = Missing Value Source: NWS Daily Summary

Daily Weather History Graph

Daily Weather History Graph

Search for Another Location

Airport or City:

Trip Planner

Search our weather history database for the weather conditions in past years. The results will help you decide how hot, cold, wet, or windy it might be!

Date:

Astronomy

Feb. 10, 2014 Rise Set
Actual Time 7:11 AM EST 6:18 PM EST
Civil Twilight 6:47 AM EST 6:42 PM EST
Nautical Twilight 6:19 AM EST 7:10 PM EST
Astronomical Twilight 5:52 AM EST 7:37 PM EST
Moon 2:54 PM EST (2/10) 3:55 AM EST (2/10)
Length of Visible Light 11h 54m
Length of Day
11h 06m
Waxing Gibbous, 84% of the Moon is Illuminated
Feb 10
Waxing Gibbous
Feb 14
Full
Feb 22
Last Quarter
Mar 1
New
Mar 8
First Quarter

Hourly Weather History & Observations

Time (EST) Temp. Dew Point Humidity Pressure Visibility Wind Dir Wind Speed Gust Speed Precip Events Conditions
12:53 AM 57.9 °F 55.0 °F 90% 30.08 in 10.0 mi NNE 4.6 mph - N/A   Clear
1:53 AM 59.0 °F 54.0 °F 83% 30.08 in 10.0 mi ENE 5.8 mph - N/A   Clear
2:53 AM 57.9 °F 54.0 °F 87% 30.07 in 10.0 mi Calm Calm - N/A   Clear
3:53 AM 57.9 °F 54.0 °F 87% 30.07 in 10.0 mi Calm Calm - N/A   Clear
4:53 AM 57.0 °F 54.0 °F 89% 30.07 in 10.0 mi North 4.6 mph - N/A   Clear
5:53 AM 57.0 °F 54.0 °F 89% 30.08 in 10.0 mi NNE 4.6 mph - N/A   Clear
6:53 AM 57.0 °F 54.0 °F 89% 30.09 in 10.0 mi NNE 5.8 mph - N/A   Clear
7:53 AM 59.0 °F 54.0 °F 83% 30.10 in 10.0 mi ENE 6.9 mph - N/A   Clear
8:53 AM 60.1 °F 54.0 °F 80% 30.12 in 10.0 mi ENE 8.1 mph - N/A   Clear
9:53 AM 62.1 °F 55.0 °F 78% 30.13 in 10.0 mi East 4.6 mph - N/A   Clear
10:53 AM 64.0 °F 55.0 °F 73% 30.12 in 10.0 mi ENE 4.6 mph - N/A   Clear
11:53 AM 66.9 °F 55.0 °F 66% 30.11 in 10.0 mi Calm Calm - N/A   Clear
12:53 PM 71.1 °F 55.9 °F 59% 30.08 in 10.0 mi ENE 4.6 mph - N/A   Clear
1:53 PM 71.1 °F 57.9 °F 63% 30.06 in 10.0 mi East 5.8 mph - N/A   Clear
2:53 PM 70.0 °F 57.0 °F 63% 30.04 in 10.0 mi ENE 8.1 mph - N/A   Clear
3:53 PM 70.0 °F 57.0 °F 63% 30.04 in 10.0 mi ENE 6.9 mph - N/A   Clear
4:53 PM 72.0 °F 54.0 °F 53% 30.04 in 10.0 mi NNW 9.2 mph - N/A   Clear
5:53 PM 71.1 °F 53.1 °F 53% 30.05 in 10.0 mi NNW 6.9 mph - N/A   Clear
6:53 PM 68.0 °F 53.1 °F 59% 30.05 in 10.0 mi NW 4.6 mph - N/A   Clear
7:53 PM 64.9 °F 54.0 °F 68% 30.06 in 10.0 mi North 4.6 mph - N/A   Clear
8:53 PM 63.0 °F 54.0 °F 72% 30.07 in 10.0 mi North 6.9 mph - N/A   Clear
9:53 PM 62.1 °F 54.0 °F 75% 30.08 in 10.0 mi North 5.8 mph - N/A   Clear
10:53 PM 61.0 °F 54.0 °F 78% 30.07 in 10.0 mi NNE 5.8 mph - N/A   Clear
11:53 PM 61.0 °F 55.0 °F 81% 30.07 in 10.0 mi NNE 4.6 mph - N/A   Clear